FW5661 Weather Reports


time (UTC)temp
F
wind
direction
speed
knots
gust
knots
rain 1hr
in
rain 24hr
in
rain mn
in
humidity
%
barometer
mb
20260506170046 64 141 1.7 3.5 0.00 0.00 0.00 72 1020.1
20260506164548 64 37 2.6 4.3 0.00 0.00 0.00 70 1020.0
20260506163044 64 360 1.7 4.3 0.00 0.00 0.00 72 1020.1
20260506161612 63 360 1.7 4.3 0.00 0.00 0.00 73 1020.3
20260506160047 62 360 1.7 4.3 0.00 0.00 0.00 73 1020.4
20260506154555 61 360 1.7 4.3 0.00 0.00 0.00 74 1020.2
20260506153051 61 360 2.6 4.3 0.00 0.00 0.00 76 1020.3
20260506151548 60 360 2.6 5.2 0.00 0.00 0.00 78 1020.3
20260506150045 59 360 1.7 6.1 0.00 0.00 0.00 81 1020.5
20260506144545 58 248 1.7 5.2 0.00 0.00 0.00 84 1020.4
20260506143047 56 272 1.7 4.3 0.00 0.00 0.00 86 1020.3
20260506141546 55 360 0.9 5.2 0.00 0.00 0.00 88 1020.1
20260506140045 53 255 1.7 2.6 0.00 0.00 0.00 88 1020.0
20260506134549 52 240 2.6 3.5 0.00 0.00 0.00 89 1019.9
20260506133041 51 252 1.7 4.3 0.00 0.00 0.00 89 1019.6
20260506131552 51 281 1.7 3.5 0.00 0.00 0.00 88 1019.6
20260506130100 51 279 2.6 5.2 0.00 0.00 0.00 88 1019.6
20260506124552 51 269 2.6 5.2 0.00 0.00 0.00 88 1019.4
20260506123043 52 287 2.6 4.3 0.00 0.00 0.00 88 1019.5
20260506121541 52 0 0.0 0.0 0.00 0.00 0.00 88 1019.4
20260506120101 52 0 0.0 1.7 0.00 0.00 0.00 88 1019.4
20260506114546 52 22 1.7 3.5 0.00 0.00 0.00 88 1019.3
20260506113052 52 19 1.7 6.1 0.00 0.00 0.00 88 1019.3
20260506111542 52 0 0.0 0.0 0.00 0.00 0.00 86 1018.9
20260506110057 52 0 0.0 2.6 0.00 0.00 0.00 87 1018.7
20260506104552 53 256 2.6 4.3 0.00 0.00 0.00 87 1018.6
20260506103053 52 259 0.0 2.6 0.00 0.00 0.00 88 1018.6
20260506101555 52 259 1.7 3.5 0.00 0.00 0.00 88 1018.6
20260506100105 52 260 2.6 3.5 0.00 0.00 0.00 87 1018.4
20260506094544 53 257 1.7 2.6 0.00 0.00 0.00 87 1018.2
20260506093049 53 252 1.7 3.5 0.00 0.00 0.00 87 1018.3
20260506091546 53 258 1.7 3.5 0.00 0.00 0.00 87 1018.3
20260506090046 53 269 0.9 3.5 0.00 0.00 0.00 86 1018.6
20260506084604 54 275 1.7 2.6 0.00 0.00 0.00 86 1018.7
20260506083048 54 1 0.9 3.5 0.00 0.00 0.00 85 1018.8
20260506081552 55 11 1.7 4.3 0.00 0.00 0.00 84 1018.7
20260506073047 56 6 0.9 3.5 0.00 0.00 0.00 82 1018.4
20260506071550 57 1 1.7 3.5 0.00 0.00 0.00 84 1018.2
20260506061542 58 0 0.0 0.0 0.00 0.00 0.00 83 1017.4
20260506044629 59 0 0.0 0.0 0.00 0.00 0.00 81 1016.7
20260506043047 59 0 0.0 0.0 0.00 0.00 0.00 80 1016.6
20260506041558 60 360 0.0 2.6 0.00 0.00 0.00 79 1016.5
20260506040047 60 360 0.9 2.6 0.00 0.00 0.00 79 1016.2
20260506034619 61 0 0.0 0.9 0.00 0.00 0.00 78 1016.2
20260506033043 61 360 0.9 3.5 0.00 0.00 0.00 77 1016.0
20260506031544 62 360 1.7 3.5 0.00 0.00 0.00 75 1015.7
20260506030045 63 360 0.9 2.6 0.00 0.00 0.00 74 1015.5
20260506024548 64 360 1.7 2.6 0.00 0.00 0.00 75 1015.3
20260506023101 64 360 1.7 2.6 0.00 0.00 0.00 73 1015.3
20260506021540 65 360 1.7 2.6 0.00 0.00 0.00 73 1015.2
20260506020047 64 360 0.9 3.5 0.00 0.00 0.00 71 1015.3
20260506014544 64 360 0.9 3.5 0.00 0.00 0.00 71 1015.2
20260506013043 64 360 2.6 5.2 0.00 0.00 0.00 70 1015.4
20260506011603 64 360 2.6 5.2 0.00 0.00 0.00 70 1015.5
20260506010056 64 360 0.9 3.5 0.00 0.00 0.00 70 1015.4
20260506004602 64 360 1.7 3.5 0.00 0.00 0.00 69 1015.4
20260506003056 64 360 1.7 3.5 0.00 0.00 0.00 69 1015.4
20260506001543 64 360 1.7 5.2 0.00 0.00 0.00 68 1015.4
20260506000047 65 360 3.5 6.1 0.00 0.00 0.00 67 1015.2
20260505234614 65 360 2.6 6.1 0.00 0.00 0.00 66 1015.1
20260505233045 65 360 3.5 7.0 0.00 0.00 0.00 68 1015.2
20260505231545 65 360 1.7 7.8 0.00 0.00 0.00 67 1015.3
20260505230050 65 360 2.6 5.2 0.00 0.00 0.00 67 1015.3
20260505224552 65 360 2.6 7.0 0.00 0.00 0.00 67 1015.4
20260505223049 65 360 1.7 7.0 0.00 0.00 0.00 66 1015.4
20260505221544 64 360 2.6 7.0 0.00 0.00 0.00 67 1015.4
20260505220057 64 360 3.5 7.0 0.00 0.00 0.00 67 1015.5
20260505214541 63 360 3.5 6.1 0.00 0.00 0.00 69 1015.7
20260505213052 63 360 3.5 7.0 0.00 0.00 0.00 68 1015.8
20260505211551 64 360 5.2 7.8 0.00 0.00 0.00 65 1015.8
20260505210045 64 360 6.1 8.7 0.00 0.00 0.00 67 1015.7
20260505204552 63 360 2.6 6.1 0.00 0.00 0.00 68 1015.7
20260505203042 63 360 3.5 6.1 0.00 0.00 0.00 65 1015.8
20260505201547 62 0 0.0 4.3 0.00 0.00 0.00 67 1015.8
20260505200045 62 360 3.5 5.2 0.00 0.00 0.00 67 1015.8
20260505194547 62 360 2.6 6.1 0.00 0.00 0.00 65 1015.8
20260505193047 62 360 1.7 5.2 0.00 0.00 0.00 66 1015.9
20260505191552 62 360 0.9 3.5 0.00 0.00 0.00 65 1015.9
20260505190045 62 360 0.9 5.2 0.00 0.00 0.00 65 1015.9
20260505184545 63 0 0.9 3.5 0.00 0.00 0.00 65 1015.7
20260505183045 60 0 0.0 2.6 0.00 0.00 0.00 72 1015.8
20260505181546 60 360 0.9 5.2 0.00 0.00 0.00 72 1015.6
20260505180058 59 360 1.7 3.5 0.00 0.00 0.00 75 1015.7
20260505174606 59 291 2.6 4.3 0.00 0.00 0.00 77 1015.6
20260505173046 58 0 0.9 4.3 0.00 0.00 0.00 77 1015.6
20260505171554 57 43 1.7 3.5 0.00 0.00 0.00 79 1015.5